Location: Larrial
(48.2758°N, 4.5331°W)
Time: 16:54:15
(UTC+00:00)

AAUSAT CUBESAT 2 - Pass Details

Date: 01 December 2021
Orbit: 572 x 586 km, 97.5° (Epoch: 16 January)

Event Time Altitude Azimuth Distance (km) Brightness Sun altitude
Rises 05:12:35 0° 17° (NNE) 2,795 ? -25.0°
Reaches altitude 10° 05:14:48 10° 23° (NNE) 1,894 ? -24.7°
Maximum altitude 05:18:48 50° 99° (E) 744 ? -24.0°
Drops below altitude 10° 05:22:46 10° 175° (S) 1,886 ? -23.4°
Sets 05:24:58 0° 181° (S) 2,782 ? -23.0°
